Location: Birkenwerder
(52.6919°N, 13.2774°E)
Time: 00:20:12
(UTC+00:00)

Cosmos 1570 Rocket - Pass Details

Date: 08 October 2020
Orbit: 763 x 788 km, 74.1° (Epoch: 24 October)

Event Time Altitude Azimuth Distance (km) Brightness Sun altitude
Exits shadow 03:21:51 15° 310° (NW) 2,005 5.8 -18.7°
Maximum altitude 03:22:53 16° 324° (NW) 1,962 5.9 -18.5°
Drops below altitude 10° 03:26:11 10° 2° (N) 2,364 6.7 -18.1°
Sets 03:29:34 0° 24° (NNE) 3,294 7.8 -17.6°
